Location: Helsinki
(60.1699°N, 24.9384°E)
Time: 23:25:09
(UTC+02:00)

Altair - Pass Details

Date: 29 October 2020
Orbit: 1502 x 1682 km, 47.2° (Epoch: 25 November)

Event Time Altitude Azimuth Distance (km) Brightness Sun altitude
Rises 11:40:02 0° 277° (W) 4,764 9.9 16.0°
Reaches altitude 10° 11:44:15 10° 261° (W) 3,809 9.7 16.1°
Maximum altitude 11:50:18 19° 222° (SW) 3,202 10.0 16.1°
Drops below altitude 10° 11:56:29 10° 182° (S) 3,887 12.4 16.1°
Sets 12:00:53 0° 166° (SSE) 4,895 11.8 16.2°
